Weather reports worldwide

Advertisment
Kinlochewe, United Kingdom (99092): temperature & dewpoint: 12.07.2018 18:00:00 - 18.07.2018 18:00:00 (BST)Kinlochewe, United Kingdom (99092): temperature -20cm: 12.07.2018 18:00:00 - 18.07.2018 18:00:00 (BST)Kinlochewe, United Kingdom (99092): precipitation: 12.07.2018 18:00:00 - 18.07.2018 18:00:00 (BST)
Date & Time tt [°C] td [°C] tt -20cm [°C] rr [mm]
18.07.2018 18:00:00 16,4 8,8 - 0,0
18.07.2018 17:00:00 17,2 8,4 - 0,0
18.07.2018 16:00:00 16,3 8,7 - 0,0
18.07.2018 15:00:00 16,0 9,3 - 0,0
18.07.2018 14:00:00 15,5 9,6 - 0,0
18.07.2018 13:00:00 15,9 9,4 - 0,0
18.07.2018 12:00:00 15,7 11,3 - 0,0
18.07.2018 11:00:00 14,7 10,9 - 0,0
18.07.2018 10:00:00 13,8 10,9 14,9 0,0
18.07.2018 09:00:00 12,9 12,0 - 0,0
18.07.2018 08:00:00 11,9 11,8 - 0,0
18.07.2018 07:00:00 11,4 11,2 - 0,0
18.07.2018 06:00:00 10,9 10,7 - 0,0
18.07.2018 05:00:00 10,7 10,5 - 0,2
18.07.2018 04:00:00 11,0 10,8 - 0,4
18.07.2018 03:00:00 11,1 10,8 - 0,0
18.07.2018 02:00:00 11,2 10,9 - 1,2
18.07.2018 01:00:00 11,3 10,7 - 0,2
18.07.2018 00:00:00 11,3 10,8 - 0,2
17.07.2018 23:00:00 11,7 11,1 - 0,2
17.07.2018 22:00:00 12,0 10,7 - 0,2
17.07.2018 21:00:00 13,7 10,0 - 0,0
17.07.2018 20:00:00 13,8 10,0 - 0,0
17.07.2018 19:00:00 14,7 9,4 - 0,0
17.07.2018 18:00:00 15,4 9,7 - 0,0
17.07.2018 17:00:00 15,1 10,2 - 0,0
17.07.2018 16:00:00 16,8 9,3 - 0,0
17.07.2018 15:00:00 15,5 10,4 - 0,0
17.07.2018 14:00:00 16,4 9,8 - 0,0
17.07.2018 13:00:00 17,0 9,9 - 0,0
17.07.2018 12:00:00 15,9 9,8 - 0,0
17.07.2018 11:00:00 14,3 11,4 - 0,0
17.07.2018 10:00:00 13,8 12,2 15,0 0,2
17.07.2018 09:00:00 13,0 11,7 - 0,0
17.07.2018 08:00:00 13,4 12,1 - 0,0
17.07.2018 07:00:00 12,5 12,1 - 0,2
17.07.2018 06:00:00 11,8 11,4 - 0,6
17.07.2018 05:00:00 12,0 11,2 - 0,8
17.07.2018 04:00:00 12,4 11,0 - 0,4
17.07.2018 03:00:00 12,5 10,7 - 0,0
17.07.2018 02:00:00 12,9 10,7 - 0,0
17.07.2018 01:00:00 12,8 10,5 - 0,0
17.07.2018 00:00:00 13,3 9,9 - 0,0
16.07.2018 23:00:00 12,8 9,5 - 0,0
16.07.2018 22:00:00 13,8 9,9 - 0,0
16.07.2018 21:00:00 14,9 8,9 - 0,0
16.07.2018 20:00:00 15,3 8,5 - 0,0
16.07.2018 19:00:00 15,7 8,6 - 0,0
16.07.2018 18:00:00 17,6 9,1 - 0,0
16.07.2018 17:00:00 17,1 10,4 - 0,0
16.07.2018 16:00:00 17,3 9,1 - 0,0
16.07.2018 15:00:00 16,8 9,6 - 0,0
16.07.2018 14:00:00 16,7 9,5 - 0,0
16.07.2018 13:00:00 16,2 10,0 - 0,0
16.07.2018 12:00:00 15,9 9,7 - 0,0
16.07.2018 11:00:00 15,6 10,6 - 0,0
16.07.2018 10:00:00 16,2 10,4 15,2 0,0
16.07.2018 09:00:00 15,1 11,2 - 0,0
16.07.2018 08:00:00 14,4 11,3 - 0,0
16.07.2018 07:00:00 13,5 11,2 - 0,0
16.07.2018 06:00:00 12,6 11,5 - 0,0
16.07.2018 05:00:00 12,6 12,1 - 0,2
16.07.2018 04:00:00 12,8 12,0 - 0,0
16.07.2018 03:00:00 13,0 11,8 - 0,2
16.07.2018 02:00:00 13,9 11,8 - 0,2
16.07.2018 01:00:00 14,9 13,1 - 0,0
16.07.2018 00:00:00 17,2 13,9 - 0,0
15.07.2018 23:00:00 16,9 15,4 - 0,0
15.07.2018 22:00:00 17,7 15,0 - 0,0
15.07.2018 21:00:00 17,6 15,9 - 0,2
15.07.2018 20:00:00 17,9 16,1 - 0,0
15.07.2018 19:00:00 18,2 15,8 - 0,0
15.07.2018 18:00:00 18,3 15,8 - 0,0
15.07.2018 17:00:00 19,0 16,1 - 0,0
15.07.2018 16:00:00 19,2 16,3 - 0,0
15.07.2018 15:00:00 19,4 16,3 - 0,0
15.07.2018 14:00:00 19,9 15,9 - 0,0
15.07.2018 13:00:00 19,6 16,3 - 0,0
15.07.2018 12:00:00 18,7 17,1 - 0,0
15.07.2018 11:00:00 18,2 17,0 - 0,0
15.07.2018 10:00:00 17,6 16,4 15,0 0,4
15.07.2018 09:00:00 17,2 16,2 - 1,0
15.07.2018 08:00:00 17,3 16,3 - 0,2
15.07.2018 07:00:00 17,3 15,9 - 0,0
15.07.2018 06:00:00 17,0 15,9 - 0,6
15.07.2018 05:00:00 17,3 15,6 - 0,0
15.07.2018 04:00:00 16,9 15,7 - 0,2
15.07.2018 03:00:00 17,6 15,5 - 0,2
15.07.2018 02:00:00 17,8 15,4 - 0,2
15.07.2018 01:00:00 18,0 15,6 - 0,4
15.07.2018 00:00:00 17,9 15,6 - 0,0
14.07.2018 23:00:00 17,7 15,3 - 0,0
14.07.2018 22:00:00 17,9 15,0 - 0,0
14.07.2018 21:00:00 18,3 14,8 - 0,0
14.07.2018 20:00:00 18,3 14,7 - 0,0
14.07.2018 19:00:00 18,3 14,8 - 0,0
14.07.2018 18:00:00 18,0 14,5 - 0,0
14.07.2018 17:00:00 18,6 14,2 - 0,0
14.07.2018 16:00:00 18,7 13,9 - 0,0
14.07.2018 15:00:00 18,7 13,8 - 0,0
14.07.2018 14:00:00 18,6 13,2 - 0,0
14.07.2018 13:00:00 18,4 12,0 - 0,0
14.07.2018 12:00:00 18,3 11,3 - 0,0
14.07.2018 11:00:00 17,8 11,3 - 0,0
14.07.2018 10:00:00 17,7 11,7 15,2 0,0
14.07.2018 09:00:00 17,6 11,6 - 0,0
14.07.2018 08:00:00 17,3 11,3 - 0,0
14.07.2018 07:00:00 16,3 11,3 - 0,0
14.07.2018 06:00:00 15,9 10,8 - 0,0
14.07.2018 05:00:00 15,4 10,5 - 0,0
14.07.2018 04:00:00 15,1 10,2 - 0,0
14.07.2018 03:00:00 14,4 10,5 - 0,0
14.07.2018 02:00:00 14,3 10,6 - 0,0
14.07.2018 01:00:00 13,7 10,7 - 0,0
14.07.2018 00:00:00 14,2 11,4 - 0,0
13.07.2018 23:00:00 14,9 11,2 - 0,0
13.07.2018 22:00:00 16,0 11,0 - 0,0
13.07.2018 21:00:00 16,7 10,5 - 0,0
13.07.2018 20:00:00 17,6 11,2 - 0,0
13.07.2018 19:00:00 19,6 9,7 - 0,0
13.07.2018 18:00:00 18,7 9,8 - 0,0
13.07.2018 17:00:00 19,6 10,0 - 0,0
13.07.2018 16:00:00 20,9 9,8 - 0,0
13.07.2018 15:00:00 20,5 11,3 - 0,0
13.07.2018 14:00:00 19,5 11,5 - 0,0
13.07.2018 13:00:00 18,9 11,1 - 0,0
13.07.2018 12:00:00 17,9 11,2 - 0,0
13.07.2018 11:00:00 17,5 11,7 - 0,0
13.07.2018 10:00:00 17,8 12,2 15,0 0,0
13.07.2018 09:00:00 16,6 12,0 - 0,0
13.07.2018 08:00:00 15,0 12,4 - 0,0
13.07.2018 07:00:00 13,9 12,0 - 0,0
13.07.2018 06:00:00 13,5 12,1 - 0,0
13.07.2018 05:00:00 13,0 12,1 - 0,0
13.07.2018 04:00:00 13,0 12,1 - 0,0
13.07.2018 03:00:00 13,2 12,0 - 0,0
13.07.2018 02:00:00 13,2 11,8 - 0,0
13.07.2018 01:00:00 13,3 11,3 - 0,0
13.07.2018 00:00:00 13,8 11,0 - 0,0
12.07.2018 23:00:00 14,6 10,9 - 0,0
12.07.2018 22:00:00 15,3 9,7 - 0,0
12.07.2018 21:00:00 15,8 10,2 - 0,0
12.07.2018 20:00:00 16,5 10,8 - 0,0
12.07.2018 19:00:00 17,0 11,3 - 0,0
12.07.2018 18:00:00 17,4 11,2 - 0,0

tt = temperature
td = dewpoint
tt -20cm = temperature -20cm
rr = precipitation

Next stations